KCNM

Cavern City Air Terminal

Airport
ICAO code
KCNM
Summary
ICAO Region
NAM
ICAO Territory
Location

Carlsbad, New Mexico,

Coordinates
32° 20' 15" N , 104° 15' 48" W
KCC
Airport LOS
Parallel Runway Operation
Airport RE
Hot and High Operations
Airport WX
Tornado
Metar
Observation
KCNM 070853Z AUTO 32006KT 10SM FEW060 OVC075 16/14 A3029 RMK AO2 RAB02E16 SLP214 P0000 60000 T01560144 58002
Station
Carlsbad, Cavern City Air Terminal Airport
Date/Time
2022-10-07 08:53:00
Wind direction
320°
Wind speed
06 kts
Lowest cloud amount
few clouds
Temperature
15.6°C
Dew point
14.4°C
Humidity
92%
Weather condition
n/a

Description

Cavern City Air Terminal is a public use airport located 9 km southwest of the central business district of Carlsbad, a city in Eddy County, New Mexico.

Climatology

A semi-arid climate (Köppen climate classification BSk), with generally cold, dry winters and hot summers. Late spring and early summer is on average the wettest period of the year.

Airport map

Aerial View

SKYbrary Partners:

Safety knowledge contributed by: